Temperature
16 16 16 16 16 16 16 16 17 17 17 16 16 16 16 16 16 15 15 16 16 16 16 15 15 15 15 15 15 15 15 15 15 15 15 15 15 14
16 16 16 16 16 15 16 16 16 16 17 16 16 16 15 15 15 15 15 15 15 15 15 15 15 15 15 15 15 15 15 15 15 15 15 15 15 14
15 15 16 16 15 15 15 15 15 15 15 15 15 15 15 15 15 15 15 15 15 15 15 15 15 15 15 15 15 15 15 15 15 15 15 15 14 14
15 15 15 15 15 15 15 15 15 15 15 15 15 15 14 14 14 14 14 15 15 15 15 15 15 15 15 15 15 15 15 15 15 15 15 14 14 14
15 15 15 15 15 15 15 15 15 15 14 15 14 14 14 14 14 14 14 14 14 14 14 14 14 14 14 14 15 14 14 14 14 14 14 14 14 14
14 14 14 14 14 14 14 14 14 14 14 14 14 14 14 14 13 14 14 14 14 14 14 14 14 14 14 14 14 14 14 14 14 14 14 14 14 14
14 14 14 14 14 14 14 14 14 14 14 14 14 14 14 13 13 13 14 14 14 14 14 14 14 14 14 14 14 14 14 14 14 14 14 14 14 14
14 14 14 14 14 14 14 14 14 13 13 13 14 14 13 13 13 13 13 13 13 13 13 13 13 13 13 13 14 14 13 13 13 13 14 13 13 13
14 14 14 14 14 14 14 14 14 14 13 13 13 13 13 13 13 13 13 13 13 13 13 13 13 13 13 13 13 13 13 13 13 13 13 13 13 13
13 13 13 13 13 13 13 13 13 13 13 13 13 13 13 13 13 13 13 13 13 13 13 12 13 13 13 13 13 13 13 13 13 13 13 13 13 13
13 13 13 13 13 13 13 13 13 13 13 13 13 13 13 13 13 12 12 12 12 13 12 12 12 12 12 12 12 12 12 12 12 12 12 12 12 12
13 13 13 13 13 13 13 12 12 13 13 13 13 13 13 12 12 12 12 12 12 13 12 12 12 12 12 12 12 12 12 12 12 12 12 12 12 12
13 13 13 13 13 13 13 12 12 12 12 12 12 12 12 12 12 12 12 12 12 12 12 12 12 12 12 12 12 12 12 12 12 12 12 12 12 12
13 13 12 12 12 12 12 12 12 12 12 12 12 12 12 12 11 11 11 11 12 12 12 11 11 11 12 12 12 11 11 11 11 11 11 11 11 11
12 12 12 12 12 12 12 12 12 12 11 12 12 11 11 11 11 11 11 11 12 11 11 11 11 11 11 12 12 12 11 11 11 11 11 11 11 11
12 12 12 12 12 12 12 11 11 11 11 11 11 11 11 11 11 11 11 11 11 11 11 11 11 11 11 11 11 11 11 11 11 11 10 11 11 11
12 12 12 11 11 11 11 11 11 11 11 11 11 11 11 11 11 11 11 11 11 11 11 10 10 10 11 11 11 11 11 11 11 10 10 10 11 10
11 11 11 11 11 11 11 11 11 11 11 11 11 11 10 10 11 11 10 10 10 11 11 10 10 10 10 10 11 10 11 11 10 10 10 10 10 10
11 11 11 11 11 11 11 11 11 11 10 10 10 10 10 10 10 10 10 10 10 10 10 10 10 10 11 11 11 10 10 10 10 10 10 10 10 10
11 11 11 11 11 11 11 11 11 10 10 10 10 10 10 10 10 10 10 10 10 10 10 10 10 10 10 10 10 10 10 10 10 10 10 10 10 10
11 11 11 11 11 11 10 10 10 10 10 10 10 10 10 10 10 10 10 10 10 10 10 10 10 10 9 9 10 10 10 10 10 9 9 9 10 10
11 11 10 10 10 10 10 10 10 10 10 10 10 10 10 9 9 9 10 10 10 10 10 10 10 9 9 9 10 10 9 9 9 9 9 9 9 9
10 10 10 10 10 10 10 10 10 10 10 10 10 9 9 9 9 9 9 9 9 10 10 10 9 9 9 9 9 10 9 9 9 9 9 9 9 9
Wind_Speed
4 5 5 4 4 4 4 5 5 5 4 3 3 1 1 1 0 2 2 3 4 4 4 5 5 6 7 7 8 8 8 8 8 9 10 11 11 12
4 4 5 4 3 4 4 4 5 5 4 2 2 1 1 2 1 2 2 3 4 4 4 4 5 5 6 7 7 8 8 7 8 8 9 9 10 11
4 4 4 5 5 4 4 4 4 4 4 3 2 2 2 2 1 2 3 3 2 3 4 4 4 4 4 5 6 7 7 7 7 8 8 9 10 10
4 4 5 4 4 4 4 4 3 3 4 4 3 2 2 3 2 3 2 2 1 3 5 4 4 3 3 3 4 5 6 6 6 8 8 9 10 11
4 4 5 4 4 3 4 3 3 4 4 4 4 2 3 2 3 3 2 2 2 2 5 5 4 4 3 3 3 4 4 5 5 7 8 8 9 10
4 4 4 5 5 5 4 4 4 4 4 4 4 3 3 3 3 3 2 2 2 1 0 1 4 5 5 4 4 4 4 4 4 5 6 7 8 9
4 4 4 3 4 4 4 3 4 4 4 4 4 4 3 3 3 3 2 2 1 1 2 2 1 1 3 4 3 3 4 4 4 4 6 7 8 9
4 4 4 4 3 3 3 4 5 6 5 5 5 4 4 4 3 4 3 3 3 1 2 2 1 1 1 1 3 4 3 3 4 4 5 7 7 8
4 4 4 2 3 3 4 6 6 6 7 7 6 6 5 4 4 5 4 4 3 2 2 2 2 1 1 3 5 4 4 3 3 4 4 6 7 8
4 4 4 3 2 3 4 4 5 5 6 6 5 5 4 3 4 5 4 4 4 3 2 3 3 2 1 2 6 5 4 4 4 4 5 5 6 7
5 4 4 4 2 2 4 4 4 4 4 4 4 3 2 3 4 4 4 4 4 3 2 3 3 2 2 2 4 7 6 5 4 5 5 5 5 7
4 4 4 3 2 3 4 5 5 4 4 4 4 4 5 4 5 5 5 5 4 3 2 3 3 2 2 2 2 4 4 5 6 6 6 4 4 5
4 4 3 4 3 3 5 5 4 4 5 4 4 4 3 3 3 4 4 5 5 4 2 3 4 3 3 2 2 2 2 2 4 4 6 7 6 5
3 3 1 4 3 4 4 4 3 4 4 4 3 3 3 3 2 3 3 3 4 4 3 4 4 3 4 4 3 2 2 2 3 3 3 7 8 9
3 0 0 3 3 4 5 5 5 4 4 4 3 3 2 2 2 2 3 3 4 4 4 5 5 4 5 4 3 3 2 2 3 3 3 3 3 4
3 2 4 5 4 2 2 4 4 3 3 3 3 3 2 2 3 3 3 3 3 3 4 4 4 4 5 4 4 4 3 3 3 3 3 3 3 4
3 2 2 1 2 2 2 2 2 2 2 3 3 2 2 2 3 3 3 3 3 3 3 3 3 4 3 3 4 4 3 3 2 2 3 4 4 4
3 2 2 2 2 2 2 2 2 2 2 3 3 3 2 2 3 3 3 4 3 3 3 3 3 3 4 4 3 5 4 3 2 2 4 4 5 4
3 3 3 3 3 2 2 3 2 2 2 3 3 3 2 3 3 3 3 3 3 3 3 3 4 4 5 4 3 4 4 3 3 4 4 5 5 4
3 3 2 3 3 3 3 3 2 2 3 3 3 3 3 3 3 3 3 3 3 3 3 3 3 4 4 4 3 3 4 4 4 4 5 5 4 3
2 2 2 2 2 2 2 2 2 2 2 3 3 3 3 3 3 4 4 3 4 4 4 3 2 3 4 3 4 3 2 3 3 4 5 5 5 5
2 2 2 2 2 2 3 3 3 3 3 3 3 3 3 3 3 4 4 3 4 4 4 3 2 3 4 4 5 4 4 3 4 5 5 6 5 5
2 2 2 2 2 2 3 3 3 3 3 3 3 3 3 3 3 3 4 4 4 4 4 3 3 3 4 5 5 5 5 5 4 4 3 5 8 9
Wind_Direction
260 255 261 259 247 246 245 249 259 260 254 231 244 249 257 258 67 240 228 163 185 208 218 225 226 225 225 222 218 218 221 222 220 218 219 214 210 211
265 260 262 260 255 250 253 253 257 263 272 274 259 269 286 267 154 254 246 164 194 203 213 220 222 221 223 223 217 215 216 214 211 211 210 204 204 203
268 260 258 269 261 251 247 247 247 251 252 259 263 261 247 264 252 255 246 231 189 174 191 204 209 212 216 215 211 206 204 206 208 208 208 206 202 199
270 274 271 262 260 260 254 247 244 241 238 248 249 245 243 249 250 256 255 253 243 155 171 181 186 190 196 197 198 198 198 201 207 209 207 204 200 199
262 263 268 267 264 262 256 245 237 234 234 237 240 240 247 256 248 243 247 259 260 163 167 172 168 168 171 175 182 178 181 193 202 204 201 201 198 199
261 258 262 262 255 251 244 239 235 235 229 235 234 233 235 247 250 248 246 243 277 282 329 187 170 176 169 162 169 173 180 190 199 203 202 202 200 200
259 254 251 255 275 259 255 239 231 231 229 231 232 234 233 243 244 247 253 259 257 283 279 261 206 204 167 160 169 175 182 188 197 199 200 200 200 202
255 253 246 231 230 236 255 259 252 239 239 240 241 242 237 245 249 245 243 249 257 256 279 280 247 238 180 127 110 135 163 181 195 202 200 197 197 197
252 250 253 235 211 234 226 229 242 250 250 245 243 246 240 239 241 240 239 245 254 238 262 273 259 234 192 113 126 141 159 173 182 185 190 197 198 199
244 242 242 244 233 232 231 233 234 232 233 234 238 246 250 247 243 247 241 230 234 220 222 255 251 249 225 139 143 154 165 173 183 186 184 187 192 198
240 235 232 233 203 225 226 234 240 236 217 219 236 245 264 258 257 247 236 231 238 233 223 250 249 251 240 205 152 158 164 170 181 187 185 188 204 209
231 226 205 217 187 198 222 231 236 238 234 207 205 212 220 223 232 242 246 242 240 239 203 229 242 252 251 218 198 180 177 175 181 185 185 188 209 213
233 225 207 162 198 220 236 241 248 247 233 220 206 205 209 217 227 234 249 249 248 241 207 220 242 242 245 245 237 227 217 211 205 202 195 187 191 210
244 239 189 151 205 227 232 249 242 240 237 225 221 214 215 222 234 242 239 242 250 253 231 238 246 249 247 245 247 229 233 232 234 236 226 196 202 208
253 314 303 182 216 218 216 222 214 224 229 231 233 240 244 230 230 236 231 226 227 228 216 227 241 250 254 255 255 247 249 243 236 246 239 223 228 229
252 212 191 195 211 224 206 209 226 229 232 236 241 242 245 230 227 232 236 232 227 213 203 216 237 249 255 260 261 259 252 246 240 246 255 252 236 229
250 243 241 228 226 229 221 218 226 219 227 241 241 244 246 237 238 231 237 236 232 223 203 202 209 225 248 266 261 261 262 259 261 258 258 262 258 245
236 233 229 229 237 237 230 222 221 224 231 239 243 245 246 250 247 235 230 235 239 232 224 217 213 217 226 223 243 254 257 260 265 253 264 265 266 262
217 236 238 233 234 241 246 248 243 238 234 231 239 249 254 253 248 244 240 242 246 244 234 228 229 232 243 247 220 234 259 268 264 260 261 265 271 269
222 235 239 236 234 233 238 249 248 238 233 235 238 248 249 250 252 253 246 244 248 244 239 233 238 246 256 271 279 262 225 255 267 267 270 269 272 254
224 231 247 247 245 241 236 233 237 243 241 239 240 244 249 252 250 251 249 236 246 248 247 247 242 243 254 253 252 251 245 206 250 270 274 273 274 268
250 247 251 262 261 254 243 233 232 230 228 234 239 243 252 256 255 256 255 245 243 249 255 254 216 222 236 244 253 255 259 248 210 208 238 263 276 276
246 255 250 240 238 240 241 233 228 228 231 234 237 238 245 254 259 255 250 250 247 249 253 248 237 236 242 246 255 258 256 261 261 251 246 217 223 241
Height
1516 1515 1516 1516 1516 1516 1516 1517 1518 1516 1516 1517 1518 1518 1518 1517 1516 1516 1516 1516 1516 1516 1515 1515 1514 1515 1515 1515 1516 1516 1517 1517 1518 1519 1520 1521 1523 1524
1512 1512 1512 1513 1513 1513 1513 1513 1514 1514 1514 1514 1515 1515 1515 1515 1514 1514 1514 1513 1513 1513 1512 1512 1511 1512 1512 1512 1513 1513 1514 1514 1515 1516 1517 1518 1519 1520
1510 1509 1509 1509 1509 1510 1510 1510 1510 1511 1510 1511 1512 1512 1511 1512 1512 1512 1512 1511 1511 1510 1509 1509 1509 1509 1509 1509 1510 1510 1511 1511 1512 1513 1515 1515 1516 1518
1507 1507 1506 1506 1506 1506 1506 1506 1507 1507 1508 1508 1509 1509 1509 1509 1509 1509 1509 1509 1509 1508 1507 1507 1507 1507 1507 1507 1507 1507 1508 1509 1509 1510 1512 1513 1514 1515
1504 1504 1503 1503 1503 1503 1503 1503 1504 1504 1505 1505 1506 1506 1507 1507 1507 1507 1507 1506 1507 1506 1505 1504 1504 1504 1504 1504 1505 1505 1506 1506 1507 1507 1508 1510 1511 1512
1502 1501 1501 1500 1500 1500 1500 1500 1501 1501 1502 1502 1503 1504 1504 1504 1505 1505 1505 1505 1504 1504 1503 1503 1502 1502 1502 1502 1502 1503 1503 1504 1504 1505 1506 1507 1509 1510
1499 1498 1498 1497 1497 1497 1498 1498 1498 1499 1500 1500 1501 1501 1502 1502 1502 1502 1502 1502 1502 1502 1501 1501 1501 1500 1500 1500 1500 1500 1501 1502 1502 1503 1503 1504 1505 1506
1496 1495 1495 1494 1494 1494 1494 1494 1495 1496 1497 1497 1498 1498 1498 1499 1499 1500 1500 1500 1499 1500 1499 1499 1499 1499 1498 1498 1498 1498 1498 1499 1499 1500 1501 1501 1502 1503
1493 1492 1492 1492 1491 1491 1491 1491 1492 1492 1493 1494 1495 1495 1495 1495 1496 1496 1496 1496 1496 1497 1497 1497 1498 1497 1497 1496 1496 1496 1496 1496 1497 1497 1497 1498 1499 1500
1489 1489 1489 1488 1488 1488 1488 1489 1489 1489 1490 1491 1491 1492 1492 1492 1493 1493 1493 1494 1494 1494 1495 1495 1495 1496 1495 1495 1494 1494 1494 1494 1494 1494 1494 1495 1495 1496
1486 1486 1485 1485 1485 1485 1486 1486 1486 1487 1487 1488 1488 1489 1489 1489 1490 1491 1491 1492 1492 1492 1492 1493 1493 1493 1493 1493 1492 1492 1492 1492 1492 1492 1492 1492 1493 1493
1482 1482 1482 1482 1482 1482 1483 1483 1483 1484 1485 1485 1485 1486 1486 1486 1487 1487 1488 1489 1489 1489 1489 1490 1490 1491 1491 1491 1491 1490 1490 1489 1489 1489 1489 1490 1490 1491
1479 1479 1479 1479 1479 1479 1480 1480 1481 1481 1482 1482 1482 1483 1483 1484 1484 1484 1484 1485 1486 1486 1486 1486 1487 1488 1489 1488 1488 1488 1488 1488 1487 1487 1487 1487 1487 1488
1476 1477 1477 1476 1477 1477 1477 1477 1478 1478 1479 1480 1480 1480 1481 1481 1480 1480 1480 1480 1480 1481 1482 1483 1484 1485 1486 1485 1486 1486 1486 1486 1485 1485 1485 1484 1484 1484
1474 1474 1474 1474 1474 1475 1475 1475 1476 1476 1476 1477 1477 1478 1478 1478 1477 1477 1477 1476 1476 1477 1478 1479 1480 1482 1482 1483 1483 1483 1483 1483 1483 1483 1482 1482 1482 1482
1472 1472 1472 1472 1472 1473 1473 1473 1473 1474 1474 1474 1475 1475 1475 1475 1475 1475 1475 1475 1475 1475 1475 1476 1477 1478 1479 1480 1480 1480 1481 1481 1481 1480 1480 1479 1479 1479
1469 1470 1470 1471 1471 1471 1471 1471 1471 1472 1472 1472 1472 1473 1473 1473 1473 1473 1473 1473 1473 1473 1473 1474 1474 1475 1476 1477 1477 1478 1478 1478 1478 1477 1476 1476 1476 1476
1467 1468 1468 1468 1469 1469 1469 1469 1470 1470 1469 1470 1470 1470 1471 1471 1471 1471 1471 1471 1471 1471 1472 1472 1473 1473 1473 1473 1474 1474 1475 1475 1475 1474 1474 1473 1473 1473
1465 1466 1466 1466 1466 1467 1467 1468 1468 1467 1467 1467 1468 1468 1469 1469 1469 1469 1469 1469 1469 1469 1470 1470 1470 1471 1471 1470 1470 1471 1472 1471 1471 1471 1471 1471 1470 1469
1463 1464 1464 1465 1465 1465 1465 1465 1466 1466 1465 1465 1466 1466 1466 1466 1466 1467 1467 1467 1467 1467 1467 1468 1468 1468 1468 1468 1468 1468 1468 1468 1468 1468 1468 1467 1466 1466
1461 1462 1462 1463 1463 1463 1463 1463 1463 1463 1463 1463 1463 1463 1463 1463 1464 1464 1464 1464 1465 1465 1465 1465 1465 1465 1465 1465 1465 1465 1465 1465 1464 1464 1464 1464 1463 1462
1460 1460 1460 1460 1461 1461 1461 1461 1461 1461 1461 1461 1461 1461 1461 1461 1461 1461 1462 1462 1462 1463 1463 1463 1462 1463 1463 1463 1463 1462 1462 1462 1461 1460 1460 1460 1459 1459
1458 1458 1458 1459 1459 1459 1459 1459 1459 1459 1459 1459 1459 1459 1459 1459 1459 1459 1460 1460 1460 1460 1461 1461 1461 1461 1461 1461 1461 1460 1460 1459 1459 1458 1457 1456 1456 1455